Location: Bishop�s Knoyle
(51.0728°N, 2.1714°W)
Time: 18:55:52
(UTC+00:00)

Nauka - Visible Passes

Search period start: 25 September 2021 00:00
Search period end: 05 October 2021 00:00
Orbit: 419 x 423 km, 51.6° (Epoch: 24 September)

Date Brightness Start Highest point End Pass type
(mag) Time Alt. Az. Time Alt. Az. Time Alt. Az.
25 Sep ? 19:49:25 10° W 19:52:48 81° N 19:53:21 60° ENE visible
25 Sep ? 21:26:19 10° W 21:26:20 10° W 21:26:20 10° W visible
26 Sep ? 19:02:29 10° W 19:05:52 79° N 19:08:10 19° E visible
26 Sep ? 20:39:22 10° W 20:41:09 28° W 20:41:09 28° W visible
27 Sep ? 19:52:26 10° W 19:55:49 79° SSW 19:55:58 76° SSE visible
28 Sep ? 19:05:30 10° W 19:08:54 89° NNE 19:10:48 24° E visible
28 Sep ? 20:42:27 10° W 20:43:47 20° W 20:43:47 20° W visible
29 Sep ? 18:18:34 10° W 18:21:57 81° N 18:25:21 10° E visible
29 Sep ? 19:55:28 10° W 19:58:38 46° SSW 19:58:38 46° SSW visible
30 Sep ? 19:08:30 10° W 19:11:50 61° SSW 19:13:31 26° SE visible
30 Sep ? 20:45:56 10° W 20:46:31 13° WSW 20:46:31 13° WSW visible
01 Oct ? 18:21:33 10° W 18:24:56 77° SSW 18:28:18 10° ESE visible
01 Oct ? 19:58:40 10° W 20:01:27 24° SW 20:01:27 24° SW visible
02 Oct ? 19:11:34 10° W 19:14:39 33° SSW 19:16:26 19° SSE visible
03 Oct ? 18:24:33 10° W 18:27:47 45° SSW 18:31:02 10° SE visible
03 Oct ? 20:02:52 10° WSW 20:03:58 11° SW 20:04:31 11° SW visible
04 Oct ? 19:15:02 10° W 19:17:15 16° SW 19:19:28 10° S visible
